This demonstration page uses our WeatherBlox Daily Observations layout. Learn more.

Left ArrowRight Arrow

53.62937, 11.41316

Hourly Observations for April 11, 2016

Temp ( °F °C ) Dew Point ( °F °C ) Humidity (%) Winds ( mph kmh ) Pressure ( in mb ) Visibility ( mi km ) Precip ( " mm )
6:20 am 06:20 Mostly Clear with Fog 28 -2 28 -2 100 100 NE 2 4 30.09 1019 30 48 N/A
6:50 am 06:50 Partly Cloudy with Fog 32 0 32 0 100 100 NE 3 6 30.09 1019 30 48 N/A
7:20 am 07:20 Partly Cloudy with Fog 32 0 32 0 100 100 ENE 3 6 30.09 1019 30 48 N/A
7:50 am 07:50 Mostly Sunny 36 2 36 2 100 100 ENE 5 7 30.09 1019 7 11 N/A
8:20 am 08:20 Mostly Sunny 41 5 39 4 93 93 ENE 7 11 30.09 1019 7 11 N/A
8:50 am 08:50 Mostly Sunny 41 5 39 4 93 93 ENE 12 19 30.09 1019 30 48 N/A
9:20 am 09:20 Partly Cloudy 41 5 37 3 87 87 E 12 19 30.09 1019 30 48 N/A
9:50 am 09:50 Partly Cloudy 41 5 39 4 93 93 NE 8 13 30.09 1019 30 48 N/A
10:20 am 10:20 Mostly Cloudy 43 6 39 4 87 87 NE 7 11 30.09 1019 30 48 N/A
10:50 am 10:50 Mostly Sunny 45 7 39 4 81 81 NE 7 11 30.09 1019 7 11 N/A
11:20 am 11:20 Mostly Sunny 46 8 39 4 76 76 ENE 9 15 30.09 1019 7 11 N/A
11:50 am 11:50 Mostly Sunny 46 8 39 4 76 76 NE 9 15 30.09 1019 7 11 N/A
12:20 pm 12:20 Mostly Sunny 46 8 39 4 76 76 ENE 12 19 30.09 1019 7 11 N/A
12:50 pm 12:50 Mostly Sunny 48 9 41 5 76 76 ENE 13 20 30.06 1018 7 11 N/A
1:20 pm 13:20 Mostly Sunny 50 10 41 5 71 71 ENE 14 22 30.06 1018 7 11 N/A
1:50 pm 13:50 Mostly Sunny 52 11 41 5 67 67 ENE 15 24 30.06 1018 7 11 N/A
2:20 pm 14:20 Mostly Sunny 52 11 39 4 62 62 NE 14 22 30.06 1018 7 11 N/A
2:50 pm 14:50 Mostly Sunny 52 11 39 4 62 62 E 15 24 30.06 1018 7 11 N/A
3:20 pm 15:20 Mostly Sunny 52 11 37 3 58 58 ENE 13 20 30.03 1017 7 11 N/A
3:50 pm 15:50 Mostly Sunny 54 12 39 4 58 58 ENE 13 20 30.03 1017 7 11 N/A
4:20 pm 16:20 Mostly Sunny 54 12 39 4 58 58 ENE 12 19 30.03 1017 7 11 N/A
4:50 pm 16:50 Mostly Sunny 52 11 39 4 62 62 NE 14 22 30.03 1017 7 11 N/A
5:20 pm 17:20 Mostly Sunny 52 11 41 5 67 67 NE 14 22 30.03 1017 7 11 N/A
5:50 pm 17:50 Mostly Sunny 52 11 41 5 67 67 ENE 13 20 30.00 1016 7 11 N/A
6:20 pm 18:20 Mostly Sunny 50 10 39 4 67 67 NE 16 26 30.00 1016 7 11 N/A
6:50 pm 18:50 Mostly Sunny 50 10 39 4 67 67 NE 13 20 30.00 1016 7 11 N/A

Powered by AerisWeather